Torna al catalogo

STARLINK-37170

AttivoComunicazioniSSO
NORAD 68614·PAYLOAD·🇺🇸 United States

Lanciato Apr 5, 2026 da Vandenberg Space Force Base

Loading…

Prossimi Passaggi (prossime 24 ore)

TLE

AggiornatoSource: CelesTrak SupGP

Epoca: Sep 14, 2026, 23:01 UTC

1 68614C 26073N   26257.95951389  .00081774  00000+0  25381-2 0  2578
2 68614  97.2852  96.0616 0001643  94.2747 208.4971 15.33401402    10

Traccia STARLINK-37170 in tempo reale con AllMySat

Download on the App Store